| time (UTC) | temp C | wind direction | speed KPH | gust KPH | rain 1hr cm | rain 24hr cm | rain mn cm | humidity % | barometer mb |
| 20260506231017 | 19 | 301 | 25.7 | 37.0 | 0.00 | 0.00 | 0.00 | 1 | 1008.3 |
| 20260506230514 | 19 | 333 | 17.7 | 33.8 | 0.00 | 0.00 | 0.00 | 1 | 1008.4 |
| 20260506230045 | 19 | 281 | 22.5 | 38.6 | 0.00 | 0.00 | 0.00 | 1 | 1008.4 |
| 20260506225519 | 19 | 296 | 25.7 | 38.6 | 0.00 | 0.00 | 0.00 | 1 | 1008.6 |
| 20260506225016 | 20 | 325 | 25.7 | 38.6 | 0.00 | 0.00 | 0.00 | 1 | 1008.3 |
| 20260506224540 | 20 | 273 | 24.1 | 35.4 | 0.00 | 0.00 | 0.00 | 1 | 1008.7 |
| 20260506224014 | 20 | 245 | 25.7 | 33.8 | 0.00 | 0.00 | 0.00 | 1 | 1008.7 |
| 20260506223517 | 20 | 312 | 17.7 | 33.8 | 0.00 | 0.00 | 0.00 | 1 | 1008.7 |
| 20260506223045 | 19 | 299 | 17.7 | 35.4 | 0.00 | 0.00 | 0.00 | 1 | 1008.9 |
| 20260506222517 | 20 | 315 | 17.7 | 35.4 | 0.00 | 0.00 | 0.00 | 1 | 1009.0 |
| 20260506222014 | 20 | 311 | 19.3 | 32.2 | 0.00 | 0.00 | 0.00 | 1 | 1009.0 |
| 20260506221538 | 19 | 304 | 20.9 | 35.4 | 0.00 | 0.00 | 0.00 | 1 | 1009.2 |
| 20260506221018 | 19 | 271 | 22.5 | 35.4 | 0.00 | 0.00 | 0.00 | 1 | 1009.4 |
| 20260506220514 | 18 | 275 | 20.9 | 32.2 | 0.00 | 0.00 | 0.00 | 1 | 1009.5 |
| 20260506220035 | 18 | 312 | 20.9 | 30.6 | 0.00 | 0.00 | 0.00 | 1 | 1009.5 |
| 20260506215517 | 19 | 302 | 17.7 | 37.0 | 0.00 | 0.00 | 0.00 | 1 | 1009.4 |
| 20260506215015 | 18 | 284 | 19.3 | 27.4 | 0.00 | 0.00 | 0.00 | 1 | 1009.6 |
| 20260506214545 | 18 | 267 | 11.3 | 25.7 | 0.00 | 0.00 | 0.00 | 1 | 1009.8 |
| 20260506214016 | 18 | 258 | 14.5 | 27.4 | 0.00 | 0.00 | 0.00 | 1 | 1009.8 |
| 20260506213515 | 18 | 288 | 19.3 | 32.2 | 0.00 | 0.00 | 0.00 | 1 | 1009.9 |
| 20260506213042 | 18 | 291 | 17.7 | 45.1 | 0.00 | 0.00 | 0.00 | 1 | 1010.0 |
| 20260506212518 | 18 | 302 | 27.4 | 45.1 | 0.00 | 0.00 | 0.00 | 1 | 1009.9 |
| 20260506212018 | 17 | 321 | 11.3 | 24.1 | 0.00 | 0.00 | 0.00 | 1 | 1010.1 |
| 20260506211543 | 17 | 277 | 9.7 | 32.2 | 0.00 | 0.00 | 0.00 | 1 | 1010.1 |
| 20260506211015 | 17 | 285 | 17.7 | 32.2 | 0.00 | 0.00 | 0.00 | 1 | 1010.2 |
| 20260506210516 | 17 | 360 | 16.1 | 25.7 | 0.00 | 0.00 | 0.00 | 1 | 1010.3 |
| 20260506210041 | 17 | 227 | 6.4 | 24.1 | 0.00 | 0.00 | 0.00 | 1 | 1010.3 |
| 20260506205513 | 16 | 265 | 6.4 | 25.7 | 0.00 | 0.00 | 0.00 | 1 | 1010.3 |
| 20260506205018 | 16 | 315 | 11.3 | 29.0 | 0.00 | 0.00 | 0.00 | 1 | 1010.5 |
| 20260506204538 | 16 | 248 | 19.3 | 29.0 | 0.00 | 0.00 | 0.00 | 1 | 1010.5 |
| 20260506204016 | 16 | 240 | 16.1 | 29.0 | 0.00 | 0.00 | 0.00 | 1 | 1010.6 |
| 20260506203513 | 16 | 337 | 3.2 | 19.3 | 0.00 | 0.00 | 0.00 | 1 | 1010.7 |
| 20260506203047 | 16 | 251 | 11.3 | 30.6 | 0.00 | 0.00 | 0.00 | 1 | 1010.8 |
| 20260506202517 | 15 | 243 | 12.9 | 30.6 | 0.00 | 0.00 | 0.00 | 1 | 1010.7 |
| 20260506202017 | 16 | 240 | 12.9 | 22.5 | 0.00 | 0.00 | 0.00 | 1 | 1010.8 |
| 20260506201547 | 15 | 298 | 9.7 | 25.7 | 0.00 | 0.00 | 0.00 | 1 | 1011.0 |
| 20260506201027 | 15 | 259 | 17.7 | 27.4 | 0.00 | 0.00 | 0.00 | 1 | 1011.2 |
| 20260506200516 | 15 | 303 | 11.3 | 27.4 | 0.00 | 0.00 | 0.00 | 1 | 1011.1 |
| 20260506200152 | 15 | 228 | 16.1 | 22.5 | 0.00 | 0.00 | 0.00 | 1 | 1011.2 |
| 20260506195518 | 15 | 228 | 12.9 | 24.1 | 0.00 | 0.00 | 0.00 | 1 | 1011.2 |
| 20260506195016 | 15 | 290 | 12.9 | 25.7 | 0.00 | 0.00 | 0.00 | 1 | 1011.4 |
| 20260506194617 | 15 | 265 | 11.3 | 22.5 | 0.00 | 0.00 | 0.00 | 1 | 1011.4 |
| 20260506194017 | 14 | 242 | 11.3 | 27.4 | 0.00 | 0.00 | 0.00 | 1 | 1011.6 |
| 20260506193520 | 14 | 269 | 11.3 | 30.6 | 0.00 | 0.00 | 0.00 | 1 | 1011.5 |
| 20260506193055 | 14 | 243 | 19.3 | 30.6 | 0.00 | 0.00 | 0.00 | 1 | 1011.6 |
| 20260506192519 | 14 | 221 | 6.4 | 27.4 | 0.00 | 0.00 | 0.00 | 1 | 1011.5 |
| 20260506192017 | 13 | 222 | 14.5 | 27.4 | 0.00 | 0.00 | 0.00 | 1 | 1011.5 |
| 20260506191556 | 13 | 208 | 11.3 | 22.5 | 0.00 | 0.00 | 0.00 | 1 | 1011.7 |
| 20260506191018 | 13 | 207 | 8.0 | 27.4 | 0.00 | 0.00 | 0.00 | 1 | 1011.8 |
| 20260506190523 | 13 | 223 | 14.5 | 27.4 | 0.00 | 0.00 | 0.00 | 1 | 1012.0 |
| 20260506185517 | 13 | 224 | 8.0 | 24.1 | 0.00 | 0.00 | 0.00 | 1 | 1012.1 |
| 20260506185015 | 13 | 233 | 16.1 | 24.1 | 0.00 | 0.00 | 0.00 | 1 | 1012.1 |
| 20260506184552 | 12 | 205 | 11.3 | 19.3 | 0.00 | 0.00 | 0.00 | 1 | 1012.3 |
| 20260506184014 | 12 | 230 | 4.8 | 27.4 | 0.00 | 0.00 | 0.00 | 1 | 1012.4 |
| 20260506183518 | 12 | 214 | 19.3 | 27.4 | 0.00 | 0.00 | 0.00 | 1 | 1012.4 |
| 20260506183052 | 11 | 207 | 4.8 | 25.7 | 0.00 | 0.00 | 0.00 | 1 | 1012.7 |
| 20260506182516 | 11 | 196 | 9.7 | 24.1 | 0.00 | 0.00 | 0.00 | 1 | 1012.7 |
| 20260506182018 | 12 | 255 | 16.1 | 24.1 | 0.00 | 0.00 | 0.00 | 1 | 1012.9 |
| 20260506181531 | 12 | 208 | 11.3 | 25.7 | 0.00 | 0.00 | 0.00 | 1 | 1012.9 |
| 20260506181014 | 12 | 242 | 12.9 | 25.7 | 0.00 | 0.00 | 0.00 | 1 | 1012.8 |
| 20260506180525 | 11 | 198 | 8.0 | 19.3 | 0.00 | 0.00 | 0.00 | 1 | 1012.7 |
| 20260506180048 | 11 | 213 | 9.7 | 25.7 | 0.00 | 0.00 | 0.00 | 1 | 1013.0 |
| 20260506175515 | 11 | 199 | 14.5 | 25.7 | 0.00 | 0.00 | 0.00 | 1 | 1013.1 |
| 20260506175014 | 11 | 163 | 14.5 | 22.5 | 0.00 | 0.00 | 0.00 | 1 | 1013.1 |
| 20260506174547 | 10 | 221 | 8.0 | 27.4 | 0.00 | 0.00 | 0.00 | 1 | 1013.3 |
| 20260506174018 | 10 | 241 | 19.3 | 27.4 | 0.00 | 0.00 | 0.00 | 1 | 1013.2 |
| 20260506173520 | 10 | 186 | 11.3 | 25.7 | 0.00 | 0.00 | 0.00 | 1 | 1013.3 |
| 20260506173129 | 10 | 211 | 17.7 | 25.7 | 0.00 | 0.00 | 0.00 | 1 | 1013.4 |
| 20260506172518 | 10 | 142 | 11.3 | 22.5 | 0.00 | 0.00 | 0.00 | 1 | 1013.4 |
| 20260506172021 | 10 | 213 | 16.1 | 25.7 | 0.00 | 0.00 | 0.00 | 1 | 1013.3 |
| 20260506171822 | 10 | 189 | 9.7 | 25.7 | 0.00 | 0.00 | 0.00 | 1 | 1013.4 |
| 20260506171015 | 9 | 184 | 11.3 | 22.5 | 0.00 | 0.00 | 0.00 | 1 | 1013.5 |
| 20260506170526 | 9 | 220 | 16.1 | 20.9 | 0.00 | 0.00 | 0.00 | 1 | 1013.6 |
| 20260506170041 | 9 | 206 | 14.5 | 24.1 | 0.00 | 0.00 | 0.00 | 1 | 1013.8 |
| 20260506165514 | 9 | 189 | 17.7 | 24.1 | 0.00 | 0.00 | 0.00 | 1 | 1013.9 |
| 20260506165016 | 9 | 205 | 14.5 | 22.5 | 0.00 | 0.00 | 0.00 | 1 | 1014.1 |
| 20260506164539 | 9 | 196 | 14.5 | 24.1 | 0.00 | 0.00 | 0.00 | 1 | 1014.2 |
| 20260506164017 | 8 | 200 | 16.1 | 22.5 | 0.00 | 0.00 | 0.00 | 1 | 1014.0 |
| 20260506163513 | 8 | 225 | 12.9 | 22.5 | 0.00 | 0.00 | 0.00 | 1 | 1014.1 |
| 20260506163050 | 8 | 194 | 16.1 | 22.5 | 0.00 | 0.00 | 0.00 | 1 | 1014.2 |
| 20260506162515 | 8 | 183 | 9.7 | 25.7 | 0.00 | 0.00 | 0.00 | 1 | 1014.2 |
| 20260506162016 | 7 | 205 | 9.7 | 19.3 | 0.00 | 0.00 | 0.00 | 1 | 1014.3 |
| 20260506161553 | 7 | 195 | 9.7 | 17.7 | 0.00 | 0.00 | 0.00 | 1 | 1014.4 |
| 20260506161019 | 7 | 211 | 11.3 | 19.3 | 0.00 | 0.00 | 0.00 | 1 | 1014.5 |
| 20260506160515 | 7 | 163 | 11.3 | 19.3 | 0.00 | 0.00 | 0.00 | 1 | 1014.5 |
| 20260506160046 | 7 | 210 | 11.3 | 19.3 | 0.00 | 0.00 | 0.00 | 1 | 1014.5 |
| 20260506155518 | 7 | 184 | 12.9 | 16.1 | 0.00 | 0.00 | 0.00 | 1 | 1014.7 |
| 20260506155014 | 6 | 219 | 11.3 | 17.7 | 0.00 | 0.00 | 0.00 | 1 | 1014.8 |
| 20260506154544 | 6 | 196 | 12.9 | 17.7 | 0.00 | 0.00 | 0.00 | 1 | 1015.0 |
| 20260506154013 | 6 | 184 | 9.7 | 16.1 | 0.00 | 0.00 | 0.00 | 1 | 1015.0 |
| 20260506153514 | 6 | 202 | 12.9 | 16.1 | 0.00 | 0.00 | 0.00 | 1 | 1015.0 |
| 20260506153043 | 6 | 180 | 9.7 | 16.1 | 0.00 | 0.00 | 0.00 | 1 | 1015.1 |
| 20260506152515 | 6 | 205 | 9.7 | 16.1 | 0.00 | 0.00 | 0.00 | 1 | 1015.3 |
| 20260506152013 | 5 | 208 | 9.7 | 16.1 | 0.00 | 0.00 | 0.00 | 1 | 1015.3 |
| 20260506151540 | 5 | 209 | 12.9 | 16.1 | 0.00 | 0.00 | 0.00 | 1 | 1015.4 |
| 20260506151012 | 5 | 208 | 4.8 | 14.5 | 0.00 | 0.00 | 0.00 | 1 | 1015.5 |
| 20260506150527 | 5 | 199 | 4.8 | 9.7 | 0.00 | 0.00 | 0.00 | 1 | 1015.4 |
| 20260506150047 | 5 | 199 | 4.8 | 12.9 | 0.00 | 0.00 | 0.00 | 1 | 1015.4 |
| 20260506145515 | 5 | 207 | 8.0 | 14.5 | 0.00 | 0.00 | 0.00 | 1 | 1015.5 |
| 20260506145017 | 5 | 234 | 9.7 | 14.5 | 0.00 | 0.00 | 0.00 | 1 | 1015.5 |
| 20260506144951 | 5 | 190 | 8.0 | 14.5 | 0.00 | 0.00 | 0.00 | 1 | 1015.5 |
| 20260506144015 | 5 | 264 | 6.4 | 14.5 | 0.00 | 0.00 | 0.00 | 1 | 1015.6 |
| 20260506143519 | 4 | 209 | 4.8 | 12.9 | 0.00 | 0.00 | 0.00 | 1 | 1015.5 |
| 20260506143458 | 4 | 213 | 6.4 | 12.9 | 0.00 | 0.00 | 0.00 | 1 | 1015.6 |
| 20260506142516 | 4 | 209 | 3.2 | 8.0 | 0.00 | 0.00 | 0.00 | 1 | 1015.8 |
| 20260506142018 | 3 | 209 | 3.2 | 8.0 | 0.00 | 0.00 | 0.00 | 1 | 1015.8 |
| 20260506141957 | 3 | 214 | 3.2 | 8.0 | 0.00 | 0.00 | 0.00 | 1 | 1015.9 |
| 20260506141019 | 3 | 196 | 3.2 | 8.0 | 0.00 | 0.00 | 0.00 | 1 | 1016.1 |
| 20260506140516 | 3 | 235 | 3.2 | 8.0 | 0.00 | 0.00 | 0.00 | 1 | 1016.0 |
| 20260506140049 | 3 | 247 | 0.0 | 0.0 | 0.00 | 0.00 | 0.00 | 1 | 1016.0 |
| 20260506135519 | 3 | 194 | 0.0 | 0.0 | 0.00 | 0.00 | 0.00 | 1 | 1015.9 |
| 20260506135024 | 3 | 279 | 0.0 | 0.0 | 0.00 | 0.00 | 0.00 | 1 | 1016.1 |
| 20260506134948 | 3 | 317 | 0.0 | 0.0 | 0.00 | 0.00 | 0.00 | 1 | 1016.1 |
| 20260506134015 | 2 | 269 | 0.0 | 0.0 | 0.00 | 0.00 | 0.00 | 1 | 1016.0 |
| 20260506133513 | 2 | 5 | 0.0 | 0.0 | 0.00 | 0.00 | 0.00 | 1 | 1016.1 |
| 20260506133045 | 1 | 5 | 0.0 | 0.0 | 0.00 | 0.00 | 0.00 | 1 | 1016.3 |
| 20260506132515 | 1 | 5 | 0.0 | 0.0 | 0.00 | 0.00 | 0.00 | 1 | 1016.3 |
| 20260506132016 | 0 | 5 | 0.0 | 0.0 | 0.00 | 0.00 | 0.00 | 1 | 1016.3 |
| 20260506131601 | 0 | 5 | 0.0 | 0.0 | 0.00 | 0.00 | 0.00 | 1 | 1016.4 |
| 20260506131015 | -1 | 5 | 0.0 | 3.2 | 0.00 | 0.00 | 0.00 | 1 | 1016.6 |
| 20260506130519 | -2 | 5 | 0.0 | 4.8 | 0.00 | 0.00 | 0.00 | 1 | 1016.5 |
| 20260506130048 | -2 | 5 | 1.6 | 4.8 | 0.00 | 0.00 | 0.00 | 1 | 1016.4 |
| 20260506125525 | -2 | 5 | 0.0 | 4.8 | 0.00 | 0.00 | 0.00 | 1 | 1016.5 |
| 20260506125015 | -3 | 5 | 3.2 | 6.4 | 0.00 | 0.00 | 0.00 | 1 | 1016.7 |
| 20260506124548 | -3 | 5 | 3.2 | 8.0 | 0.00 | 0.00 | 0.00 | 1 | 1016.9 |
| 20260506124027 | -4 | 5 | 4.8 | 8.0 | 0.00 | 0.00 | 0.00 | 1 | 1017.0 |
| 20260506123516 | -4 | 5 | 3.2 | 4.8 | 0.00 | 0.00 | 0.00 | 1 | 1017.1 |
| 20260506123056 | -5 | 5 | 1.6 | 6.4 | 0.00 | 0.00 | 0.00 | 1 | 1017.2 |
| 20260506122515 | -5 | 5 | 3.2 | 6.4 | 0.00 | 0.00 | 0.00 | 1 | 1017.2 |
| 20260506122014 | -5 | 5 | 1.6 | 6.4 | 0.00 | 0.00 | 0.00 | 1 | 1017.1 |
| 20260506121606 | -5 | 5 | 3.2 | 6.4 | 0.00 | 0.00 | 0.00 | 1 | 1017.2 |
| 20260506121016 | -6 | 5 | 4.8 | 8.0 | 0.00 | 0.00 | 0.00 | 1 | 1017.2 |
| 20260506120530 | -6 | 5 | 4.8 | 8.0 | 0.00 | 0.00 | 0.00 | 1 | 1017.3 |
| 20260506120110 | -6 | 5 | 3.2 | 6.4 | 0.00 | 0.00 | 0.00 | 1 | 1017.3 |
| 20260506115516 | -6 | 5 | 4.8 | 6.4 | 0.00 | 0.00 | 0.00 | 1 | 1017.5 |
| 20260506115020 | -6 | 5 | 4.8 | 6.4 | 0.00 | 0.00 | 0.00 | 1 | 1017.5 |
| 20260506114609 | -7 | 5 | 3.2 | 6.4 | 0.00 | 0.00 | 0.00 | 1 | 1017.5 |
| 20260506114017 | -7 | 5 | 3.2 | 8.0 | 0.00 | 0.00 | 0.00 | 1 | 1017.5 |
| 20260506113519 | -7 | 5 | 4.8 | 8.0 | 0.00 | 0.00 | 0.00 | 1 | 1017.5 |
| 20260506113311 | -7 | 5 | 3.2 | 4.8 | 0.00 | 0.00 | 0.00 | 1 | 1017.5 |
| 20260506112519 | -7 | 5 | 0.0 | 0.0 | 0.00 | 0.00 | 0.00 | 1 | 1017.5 |
| 20260506112016 | -7 | 5 | 0.0 | 0.0 | 0.00 | 0.00 | 0.00 | 1 | 1017.5 |
| 20260506111627 | -7 | 5 | 0.0 | 0.0 | 0.00 | 0.00 | 0.00 | 1 | 1017.7 |
| 20260506111015 | -7 | 5 | 0.0 | 0.0 | 0.00 | 0.00 | 0.00 | 1 | 1017.8 |
| 20260506110518 | -8 | 5 | 0.0 | 3.2 | 0.00 | 0.00 | 0.00 | 1 | 1017.8 |
| 20260506110124 | -7 | 5 | 0.0 | 4.8 | 0.00 | 0.00 | 0.00 | 1 | 1017.8 |
| 20260506105515 | -7 | 5 | 1.6 | 4.8 | 0.00 | 0.00 | 0.00 | 1 | 1017.9 |
| 20260506105018 | -8 | 5 | 1.6 | 4.8 | 0.00 | 0.00 | 0.00 | 1 | 1017.9 |
| 20260506104551 | -7 | 5 | 1.6 | 3.2 | 0.00 | 0.00 | 0.00 | 1 | 1018.0 |
| 20260506104020 | -7 | 5 | 0.0 | 3.2 | 0.00 | 0.00 | 0.00 | 1 | 1018.0 |
| 20260506103517 | -7 | 5 | 0.0 | 4.8 | 0.00 | 0.00 | 0.00 | 1 | 1018.1 |
| 20260506103046 | -7 | 5 | 1.6 | 4.8 | 0.00 | 0.00 | 0.00 | 1 | 1018.1 |
| 20260506102516 | -7 | 5 | 1.6 | 8.0 | 0.00 | 0.00 | 0.00 | 1 | 1018.1 |
| 20260506102016 | -7 | 5 | 3.2 | 8.0 | 0.00 | 0.00 | 0.00 | 1 | 1018.2 |
| 20260506101556 | -7 | 5 | 3.2 | 6.4 | 0.00 | 0.00 | 0.00 | 1 | 1018.3 |
| 20260506101017 | -7 | 5 | 3.2 | 8.0 | 0.00 | 0.00 | 0.00 | 1 | 1018.3 |
| 20260506100516 | -7 | 5 | 3.2 | 8.0 | 0.00 | 0.00 | 0.00 | 1 | 1018.4 |
| 20260506100050 | -7 | 5 | 4.8 | 8.0 | 0.00 | 0.00 | 0.00 | 1 | 1018.3 |
| 20260506095514 | -7 | 5 | 1.6 | 6.4 | 0.00 | 0.00 | 0.00 | 1 | 1018.4 |
| 20260506095027 | -7 | 5 | 3.2 | 6.4 | 0.00 | 0.00 | 0.00 | 1 | 1018.4 |
| 20260506094550 | -7 | 5 | 4.8 | 6.4 | 0.00 | 0.00 | 0.00 | 1 | 1018.4 |
| 20260506094023 | -7 | 5 | 3.2 | 4.8 | 0.00 | 0.00 | 0.00 | 1 | 1018.6 |
| 20260506093520 | -7 | 5 | 3.2 | 4.8 | 0.00 | 0.00 | 0.00 | 1 | 1018.6 |
| 20260506093053 | -7 | 5 | 3.2 | 6.4 | 0.00 | 0.00 | 0.00 | 1 | 1018.7 |
| 20260506092519 | -7 | 5 | 4.8 | 6.4 | 0.00 | 0.00 | 0.00 | 1 | 1018.7 |
| 20260506092020 | -7 | 5 | 3.2 | 4.8 | 0.00 | 0.00 | 0.00 | 1 | 1018.7 |
| 20260506091552 | -7 | 5 | 3.2 | 4.8 | 0.00 | 0.00 | 0.00 | 1 | 1018.8 |
| 20260506091015 | -7 | 5 | 3.2 | 6.4 | 0.00 | 0.00 | 0.00 | 1 | 1018.7 |
| 20260506090517 | -7 | 5 | 3.2 | 6.4 | 0.00 | 0.00 | 0.00 | 1 | 1018.8 |
| 20260506090343 | -6 | 5 | 3.2 | 6.4 | 0.00 | 0.00 | 0.00 | 1 | 1018.9 |
| 20260506085518 | -6 | 5 | 3.2 | 6.4 | 0.00 | 0.00 | 0.00 | 1 | 1018.9 |
| 20260506085017 | -6 | 5 | 4.8 | 6.4 | 0.00 | 0.00 | 0.00 | 1 | 1019.0 |
| 20260506084611 | -6 | 5 | 3.2 | 6.4 | 0.00 | 0.00 | 0.00 | 1 | 1019.0 |
| 20260506084018 | -7 | 5 | 3.2 | 6.4 | 0.00 | 0.00 | 0.00 | 1 | 1018.9 |
| 20260506083517 | -7 | 5 | 3.2 | 8.0 | 0.00 | 0.00 | 0.00 | 1 | 1019.0 |
| 20260506083344 | -7 | 5 | 6.4 | 8.0 | 0.00 | 0.00 | 0.00 | 1 | 1019.1 |
| 20260506082516 | -7 | 5 | 4.8 | 6.4 | 0.00 | 0.00 | 0.00 | 1 | 1019.1 |
| 20260506082028 | -6 | 5 | 3.2 | 8.0 | 0.00 | 0.00 | 0.00 | 1 | 1019.2 |
| 20260506081559 | -6 | 5 | 6.4 | 8.0 | 0.00 | 0.00 | 0.00 | 1 | 1019.3 |
| 20260506081023 | -6 | 5 | 3.2 | 9.7 | 0.00 | 0.00 | 0.00 | 1 | 1019.2 |
| 20260506080520 | -6 | 5 | 6.4 | 9.7 | 0.00 | 0.00 | 0.00 | 1 | 1019.2 |
| 20260506080105 | -6 | 5 | 4.8 | 8.0 | 0.00 | 0.00 | 0.00 | 1 | 1019.3 |
| 20260506073522 | -5 | 5 | 3.2 | 6.4 | 0.00 | 0.00 | 0.00 | 1 | 1019.5 |
| 20260506073058 | -5 | 5 | 3.2 | 8.0 | 0.00 | 0.00 | 0.00 | 1 | 1019.5 |
| 20260506072520 | -5 | 5 | 3.2 | 8.0 | 0.00 | 0.00 | 0.00 | 1 | 1019.5 |
| 20260506072018 | -5 | 5 | 4.8 | 8.0 | 0.00 | 0.00 | 0.00 | 1 | 1019.5 |
| 20260506071558 | -5 | 5 | 4.8 | 8.0 | 0.00 | 0.00 | 0.00 | 1 | 1019.4 |
| 20260506071020 | -5 | 5 | 4.8 | 6.4 | 0.00 | 0.00 | 0.00 | 1 | 1019.4 |
| 20260506070518 | -5 | 5 | 4.8 | 6.4 | 0.00 | 0.00 | 0.00 | 1 | 1019.5 |
| 20260506070123 | -5 | 5 | 4.8 | 8.0 | 0.00 | 0.00 | 0.00 | 1 | 1019.5 |
| 20260506062516 | -5 | 5 | 4.8 | 6.4 | 0.00 | 0.00 | 0.00 | 1 | 1019.7 |
| 20260506062018 | -3 | 5 | 4.8 | 6.4 | 0.00 | 0.00 | 0.00 | 1 | 1019.7 |
| 20260506061550 | -3 | 5 | 4.8 | 9.7 | 0.00 | 0.00 | 0.00 | 1 | 1019.6 |
| 20260506061017 | -2 | 5 | 6.4 | 9.7 | 0.00 | 0.00 | 0.00 | 1 | 1019.6 |
| 20260506060516 | -3 | 5 | 6.4 | 8.0 | 0.00 | 0.00 | 0.00 | 1 | 1019.6 |
| 20260506051027 | -5 | 5 | 4.8 | 8.0 | 0.00 | 0.00 | 0.00 | 1 | 1019.9 |
| 20260506050521 | -5 | 5 | 4.8 | 8.0 | 0.00 | 0.00 | 0.00 | 1 | 1019.8 |
| 20260506045027 | -5 | 5 | 3.2 | 6.4 | 0.00 | 0.00 | 0.00 | 1 | 1020.0 |
| 20260506044556 | -5 | 5 | 3.2 | 6.4 | 0.00 | 0.00 | 0.00 | 1 | 1020.0 |
| 20260506044020 | -4 | 5 | 3.2 | 6.4 | 0.00 | 0.00 | 0.00 | 1 | 1019.8 |
| 20260506043517 | -4 | 5 | 3.2 | 4.8 | 0.00 | 0.00 | 0.00 | 1 | 1020.0 |
| 20260506043056 | -3 | 5 | 1.6 | 4.8 | 0.00 | 0.00 | 0.00 | 1 | 1019.8 |
| 20260506042518 | -3 | 5 | 1.6 | 4.8 | 0.00 | 0.00 | 0.00 | 1 | 1019.8 |
| 20260506042017 | -3 | 5 | 3.2 | 4.8 | 0.00 | 0.00 | 0.00 | 1 | 1019.9 |
| 20260506041614 | -3 | 5 | 1.6 | 6.4 | 0.00 | 0.00 | 0.00 | 1 | 1019.8 |
| 20260506041027 | -3 | 5 | 0.0 | 6.4 | 0.00 | 0.00 | 0.00 | 1 | 1019.9 |
| 20260506040523 | -2 | 5 | 3.2 | 6.4 | 0.00 | 0.00 | 0.00 | 1 | 1019.8 |
| 20260506040059 | -1 | 5 | 1.6 | 6.4 | 0.00 | 0.00 | 0.00 | 1 | 1019.8 |
| 20260506035527 | -1 | 5 | 3.2 | 6.4 | 0.00 | 0.00 | 0.00 | 1 | 1019.8 |
| 20260506035016 | -1 | 5 | 3.2 | 6.4 | 0.00 | 0.00 | 0.00 | 1 | 1019.8 |
| 20260506034557 | -1 | 5 | 1.6 | 6.4 | 0.00 | 0.00 | 0.00 | 1 | 1019.6 |
| 20260506034017 | -2 | 5 | 3.2 | 6.4 | 0.00 | 0.00 | 0.00 | 1 | 1019.5 |
| 20260506033519 | -1 | 5 | 4.8 | 6.4 | 0.00 | 0.00 | 0.00 | 1 | 1019.6 |
| 20260506033107 | -1 | 5 | 3.2 | 6.4 | 0.00 | 0.00 | 0.00 | 1 | 1019.7 |
| 20260506032516 | 0 | 5 | 3.2 | 8.0 | 0.00 | 0.00 | 0.00 | 1 | 1019.5 |
| 20260506032016 | 0 | 5 | 3.2 | 6.4 | 0.00 | 0.00 | 0.00 | 1 | 1019.4 |
| 20260506031839 | 0 | 5 | 3.2 | 8.0 | 0.00 | 0.00 | 0.00 | 1 | 1019.5 |
| 20260506031021 | 0 | 5 | 6.4 | 8.0 | 0.00 | 0.00 | 0.00 | 1 | 1019.4 |
| 20260506030520 | 1 | 5 | 3.2 | 8.0 | 0.00 | 0.00 | 0.00 | 1 | 1019.3 |
| 20260506030100 | 1 | 5 | 4.8 | 8.0 | 0.00 | 0.00 | 0.00 | 1 | 1019.3 |
| 20260506025520 | 2 | 5 | 4.8 | 8.0 | 0.00 | 0.00 | 0.00 | 1 | 1019.3 |
| 20260506025018 | 2 | 5 | 4.8 | 8.0 | 0.00 | 0.00 | 0.00 | 1 | 1019.5 |
| 20260506024607 | 2 | 5 | 6.4 | 9.7 | 0.00 | 0.00 | 0.00 | 1 | 1019.2 |
| 20260506024021 | 3 | 5 | 8.0 | 9.7 | 0.00 | 0.00 | 0.00 | 1 | 1019.1 |
| 20260506023521 | 3 | 11 | 4.8 | 16.1 | 0.00 | 0.00 | 0.00 | 1 | 1019.1 |
| 20260506023106 | 3 | 348 | 4.8 | 16.1 | 0.00 | 0.00 | 0.00 | 1 | 1018.9 |
| 20260506022514 | 3 | 30 | 9.7 | 16.1 | 0.00 | 0.00 | 0.00 | 1 | 1018.9 |
| 20260506022027 | 4 | 336 | 8.0 | 16.1 | 0.00 | 0.00 | 0.00 | 1 | 1019.0 |
| 20260506021553 | 4 | 351 | 11.3 | 20.9 | 0.00 | 0.00 | 0.00 | 1 | 1019.1 |
| 20260506021020 | 5 | 360 | 14.5 | 20.9 | 0.00 | 0.00 | 0.00 | 1 | 1019.0 |
| 20260506020515 | 5 | 17 | 12.9 | 25.7 | 0.00 | 0.00 | 0.00 | 1 | 1018.9 |
| 20260506020111 | 5 | 5 | 12.9 | 25.7 | 0.00 | 0.00 | 0.00 | 1 | 1018.9 |
| 20260506015517 | 5 | 355 | 14.5 | 24.1 | 0.00 | 0.00 | 0.00 | 1 | 1018.8 |
| 20260506015019 | 5 | 344 | 17.7 | 27.4 | 0.00 | 0.00 | 0.00 | 1 | 1018.8 |
| 20260506014557 | 5 | 350 | 22.5 | 27.4 | 0.00 | 0.00 | 0.00 | 1 | 1018.7 |
| 20260506014018 | 5 | 355 | 14.5 | 25.7 | 0.00 | 0.00 | 0.00 | 1 | 1018.8 |
| 20260506013515 | 5 | 355 | 17.7 | 32.2 | 0.00 | 0.00 | 0.00 | 1 | 1018.9 |
| 20260506013052 | 5 | 5 | 22.5 | 33.8 | 0.00 | 0.00 | 0.00 | 1 | 1018.7 |
| 20260506012515 | 6 | 15 | 24.1 | 33.8 | 0.00 | 0.00 | 0.00 | 1 | 1018.8 |
| 20260506012026 | 6 | 5 | 17.7 | 38.6 | 0.00 | 0.00 | 0.00 | 1 | 1018.8 |
| 20260506011626 | 6 | 12 | 27.4 | 38.6 | 0.00 | 0.00 | 0.00 | 1 | 1018.7 |
| 20260506011015 | 6 | 360 | 19.3 | 33.8 | 0.00 | 0.00 | 0.00 | 1 | 1019.1 |
| 20260506010517 | 6 | 24 | 25.7 | 33.8 | 0.00 | 0.00 | 0.00 | 1 | 1018.9 |
| 20260506010053 | 6 | 333 | 16.1 | 30.6 | 0.00 | 0.00 | 0.00 | 1 | 1018.9 |
| 20260506005516 | 6 | 355 | 17.7 | 35.4 | 0.00 | 0.00 | 0.00 | 1 | 1018.9 |
| 20260506005015 | 6 | 9 | 24.1 | 33.8 | 0.00 | 0.00 | 0.00 | 1 | 1018.6 |
| 20260506004600 | 6 | 12 | 22.5 | 32.2 | 0.00 | 0.00 | 0.00 | 1 | 1018.8 |
| 20260506004017 | 6 | 355 | 22.5 | 32.2 | 0.00 | 0.00 | 0.00 | 1 | 1018.6 |
| 20260506003519 | 6 | 360 | 22.5 | 35.4 | 0.00 | 0.00 | 0.00 | 1 | 1018.7 |
| 20260506003049 | 6 | 5 | 20.9 | 32.2 | 0.00 | 0.00 | 0.00 | 1 | 1018.7 |
| 20260506002519 | 6 | 5 | 22.5 | 32.2 | 0.00 | 0.00 | 0.00 | 1 | 1018.6 |
| 20260506002017 | 6 | 336 | 22.5 | 35.4 | 0.00 | 0.00 | 0.00 | 1 | 1018.6 |
| 20260506001609 | 6 | 330 | 25.7 | 35.4 | 0.00 | 0.00 | 0.00 | 1 | 1018.4 |
| 20260506001018 | 6 | 355 | 25.7 | 40.2 | 0.00 | 0.00 | 0.00 | 1 | 1018.7 |
| 20260506000521 | 7 | 346 | 27.4 | 40.2 | 0.00 | 0.00 | 0.00 | 1 | 1018.6 |
| 20260506000123 | 7 | 331 | 27.4 | 37.0 | 0.00 | 0.00 | 0.00 | 1 | 1018.6 |
| 20260505235517 | 6 | 350 | 20.9 | 38.6 | 0.00 | 0.00 | 0.00 | 1 | 1018.6 |
| 20260505235020 | 7 | 355 | 29.0 | 41.8 | 0.00 | 0.00 | 0.00 | 1 | 1018.5 |
| 20260505234611 | 6 | 333 | 29.0 | 41.8 | 0.00 | 0.00 | 0.00 | 1 | 1018.7 |
| 20260505234020 | 7 | 332 | 25.7 | 40.2 | 0.00 | 0.00 | 0.00 | 1 | 1018.7 |
| 20260505233517 | 6 | 322 | 29.0 | 40.2 | 0.00 | 0.00 | 0.00 | 1 | 1018.5 |
| 20260505233116 | 6 | 349 | 25.7 | 43.5 | 0.00 | 0.00 | 0.00 | 1 | 1018.6 |
| 20260505232522 | 6 | 336 | 30.6 | 43.5 | 0.00 | 0.00 | 0.00 | 1 | 1018.4 |
| 20260505232019 | 6 | 17 | 27.4 | 38.6 | 0.00 | 0.00 | 0.00 | 1 | 1018.7 |
| 20260505231613 | 6 | 340 | 27.4 | 45.1 | 0.00 | 0.00 | 0.00 | 1 | 1018.8 |